< < Back
Terminal Aerodrome Forecast


Current Version              Previous Versions:   1  2  3  4  5  6  7  8  9  

Terminal Aerodrome Forecast

613
FTUS42 KTAE 310500
TAFVLD
TAF
KVLD 310539Z 3106/0106 00000KT P6SM SKC
     FM311400 33005KT P6SM SKC
     FM311900 32007G12KT P6SM SCT250
     FM010300 30008KT P6SM SKC=

Latest METAR

645
SAUS70 KWBC 310900 RRB
MTRVLD
METAR KVLD 310853Z AUTO 00000KT 10SM CLR 09/06 A2990 RMK AO2 SLP133
T00890056 56007


USA.gov is the U.S. government's official web portal to all federal, state and local government web resources and services.